FW7205 Weather Reports


time (UTC)temp
C
wind
direction
speed
KPH
gust
KPH
rain 1hr
cm
rain 24hr
cm
rain mn
cm
humidity
%
barometer
mb
20260507113100 15 32 0.0 3.2 0.00 0.00 0.00 86 1015.3
20260507111604 15 13 0.0 3.2 0.00 0.00 0.00 86 1014.8
20260507110055 15 0 0.0 4.8 0.00 0.00 0.00 86 1014.7
20260507104554 16 27 1.6 3.2 0.00 0.00 0.00 87 1014.6
20260507103054 16 30 0.0 4.8 0.00 0.00 0.00 87 1014.6
20260507101603 16 0 0.0 4.8 0.00 0.00 0.00 88 1014.7
20260507100057 16 0 0.0 3.2 0.00 0.00 0.00 88 1014.0
20260507094604 16 0 0.0 1.6 0.00 0.00 0.00 88 1014.0
20260507093054 16 0 0.0 4.8 0.00 0.00 0.00 88 1013.8
20260507091552 16 0 0.0 4.8 0.00 0.00 0.00 88 1013.5
20260507090100 16 0 0.0 3.2 0.00 0.00 0.00 88 1012.9
20260507084558 16 56 0.0 4.8 0.00 0.00 0.00 87 1012.9
20260507083053 16 0 1.6 8.0 0.00 0.00 0.00 87 1013.0
20260507081553 16 0 0.0 3.2 0.00 0.00 0.00 87 1013.9
20260507080119 16 0 0.0 3.2 0.00 0.00 0.00 87 1013.5
20260507074558 16 59 1.6 8.0 0.00 0.00 0.00 86 1012.8
20260507073106 16 61 1.6 6.4 0.00 0.00 0.00 86 1013.6
20260507071555 16 59 1.6 4.8 0.00 0.00 0.00 85 1013.3
20260507070055 16 61 0.0 6.4 0.00 0.00 0.00 85 1014.0
20260507064600 16 0 0.0 4.8 0.00 0.00 0.00 85 1013.7
20260507063102 16 57 1.6 6.4 0.00 0.00 0.00 85 1013.9
20260507061553 16 0 0.0 6.4 0.00 0.00 0.00 84 1014.3
20260507060053 16 42 0.0 8.0 0.00 0.00 0.00 84 1013.6
20260507054552 16 63 0.0 3.2 0.00 0.00 0.00 84 1013.7
20260507053053 16 0 0.0 3.2 0.00 0.00 0.00 83 1014.0
20260507051553 16 314 0.0 3.2 0.00 0.00 0.00 83 1013.9
20260507050054 17 5 0.0 3.2 0.00 0.00 0.00 83 1013.7
20260507044555 17 350 1.6 6.4 0.00 0.00 0.00 82 1013.9
20260507043055 17 355 0.0 3.2 0.00 0.00 0.00 82 1013.8
20260507041554 17 0 0.0 6.4 0.00 0.00 0.00 82 1014.1
20260507034556 17 0 0.0 6.4 0.00 0.00 0.00 81 1013.5
20260507033101 17 0 0.0 3.2 0.00 0.00 0.00 81 1013.5
20260507031553 17 0 0.0 4.8 0.00 0.00 0.00 81 1013.2
20260507030055 17 0 0.0 4.8 0.00 0.00 0.00 81 1013.3
20260507024606 17 26 0.0 4.8 0.00 0.00 0.00 81 1012.7
20260507023053 17 0 0.0 4.8 0.00 0.00 0.00 81 1012.5
20260507021559 17 0 0.0 6.4 0.00 0.00 0.00 81 1012.5
20260507020109 18 0 0.0 4.8 0.00 0.00 0.00 80 1012.0
20260507014601 18 0 0.0 3.2 0.00 0.00 0.00 80 1011.8
20260507013057 18 0 0.0 4.8 0.00 0.00 0.00 80 1011.9
20260507011558 18 60 0.0 3.2 0.00 0.00 0.00 79 1011.4
20260507004605 19 0 0.0 6.4 0.00 0.00 0.00 77 1010.8
20260507003057 20 5 0.0 4.8 0.00 0.00 0.00 77 1010.5
20260507001555 20 95 0.0 3.2 0.00 0.00 0.00 76 1010.5
20260507000056 20 0 0.0 3.2 0.00 0.00 0.00 75 1010.2
20260506234553 21 75 0.0 4.8 0.00 0.00 0.00 75 1009.9
20260506233110 21 5 1.6 4.8 0.00 0.00 0.00 75 1009.9
20260506231600 21 339 0.0 4.8 0.00 0.00 0.00 74 1009.7
20260506230056 21 334 1.6 6.4 0.00 0.00 0.00 75 1009.8
20260506224555 22 38 0.0 4.8 0.00 0.00 0.00 74 1009.7
20260506223055 22 340 0.0 6.4 0.00 0.00 0.00 75 1009.7
20260506221558 22 311 0.0 6.4 0.00 0.00 0.00 75 1009.6
20260506220056 22 0 1.6 8.0 0.00 0.00 0.00 76 1009.4
20260506214556 22 355 0.0 4.8 0.00 0.00 0.00 75 1009.1
20260506213110 23 0 0.0 6.4 0.00 0.00 0.00 74 1009.2
20260506211555 24 313 0.0 4.8 0.00 0.00 0.00 75 1009.2
20260506210056 25 321 0.0 4.8 0.00 0.00 0.00 78 1008.9
20260506204556 25 337 0.0 1.6 0.00 0.00 0.00 77 1008.8
20260506203053 26 0 0.0 3.2 0.00 0.00 0.00 77 1009.1
20260506201554 25 0 0.0 3.2 0.00 0.00 0.00 78 1009.1
20260506200053 25 0 0.0 4.8 0.00 0.00 0.00 79 1009.0
20260506194553 25 69 0.0 3.2 0.00 0.00 0.00 79 1009.4
20260506193057 24 0 0.0 3.2 0.00 0.00 0.00 79 1009.2
20260506191553 23 0 0.0 6.4 0.00 0.00 0.00 79 1009.2
20260506190053 23 0 0.0 3.2 0.00 0.00 0.00 81 1009.1
20260506184555 22 0 0.0 6.4 0.00 0.00 0.00 82 1009.5
20260506183100 21 0 0.0 4.8 0.00 0.00 0.00 83 1009.8
20260506181621 20 0 1.6 8.0 0.00 0.00 0.00 84 1010.0
20260506180054 19 71 1.6 6.4 0.00 0.00 0.00 86 1010.1
20260506174552 18 67 1.6 4.8 0.00 0.00 0.00 86 1010.6
20260506173100 20 355 0.0 4.8 0.00 0.00 0.00 84 1011.0
20260506171552 21 13 0.0 4.8 0.00 0.00 0.00 82 1011.2
20260506170055 23 0 1.6 8.0 0.00 0.00 0.00 79 1011.2
20260506164600 25 0 0.0 1.6 0.00 0.00 0.00 87 1011.1
20260506163103 25 0 0.0 1.6 0.00 0.00 0.00 87 1011.0
20260506161557 25 0 0.0 1.6 0.00 0.00 0.00 87 1010.8
20260506160108 25 0 0.0 1.6 0.00 0.00 0.00 89 1010.3
20260506154601 25 0 0.0 1.6 0.00 0.00 0.00 89 1009.7
20260506153110 25 0 0.0 1.6 0.00 0.00 0.00 90 1009.7
20260506151555 25 0 0.0 3.2 0.00 0.00 0.00 90 1009.7
20260506150059 25 0 0.0 3.2 0.00 0.00 0.00 90 1009.8
20260506144558 24 0 0.0 1.6 0.00 0.00 0.00 91 1009.8
20260506143057 24 0 0.0 4.8 0.00 0.00 0.00 91 1009.8
20260506141555 24 0 0.0 4.8 0.00 0.00 0.00 92 1009.2
20260506140054 23 0 0.0 3.2 0.00 0.00 0.00 92 1009.1
20260506134553 23 82 0.0 3.2 0.00 0.00 0.00 92 1008.9
20260506133053 23 0 0.0 1.6 0.00 0.00 0.00 92 1009.0
20260506131556 23 0 0.0 1.6 0.00 0.00 0.00 92 1009.1
20260506130056 23 0 0.0 0.0 0.00 0.00 0.00 92 1009.2
20260506124556 23 0 0.0 1.6 0.00 0.00 0.00 92 1008.7
20260506123055 23 0 0.0 0.0 0.00 0.00 0.00 92 1008.7
20260506121553 23 0 0.0 1.6 0.00 0.00 0.00 91 1008.9
20260506120057 23 0 0.0 1.6 0.00 0.00 0.00 91 1008.7
20260506114555 23 0 0.0 0.0 0.00 0.00 0.00 91 1008.7